Weather reports worldwide

Advertisment
Capo Bellavista, Italy (16550): temperature & dewpoint: 20.03.2019 20:00:00 - 26.03.2019 20:00:00 (CET)Capo Bellavista, Italy (16550): wind speed: 20.03.2019 20:00:00 - 26.03.2019 20:00:00 (CET)Capo Bellavista, Italy (16550): wind direction: 20.03.2019 20:00:00 - 26.03.2019 20:00:00 (CET)Capo Bellavista, Italy (16550): reduced air pressure: 20.03.2019 20:00:00 - 26.03.2019 20:00:00 (CET)Capo Bellavista, Italy (16550): visibility: 20.03.2019 20:00:00 - 26.03.2019 20:00:00 (CET)Capo Bellavista, Italy (16550): sunshine duration: 20.03.2019 20:00:00 - 26.03.2019 20:00:00 (CET)
Date & Time tt [°C] td [°C] ff [km/h] ff [kn] dd ppp [hPa] vv [km] sd [min]
26.03.2019 20:00:00 11,8 6,3 18 10 NW 1009,9 20 -
26.03.2019 19:00:00 13,0 7,5 13 7 W 1009,0 25 0
26.03.2019 18:00:00 13,2 6,8 11 6 WSW 1008,7 25 0
26.03.2019 17:00:00 14,2 8,2 13 7 E 1008,6 25 0
26.03.2019 16:00:00 13,0 7,5 11 6 NE 1008,4 20 0
26.03.2019 15:00:00 12,6 8,3 34 18 NE 1008,7 20 0
26.03.2019 14:00:00 13,2 8,5 41 22 NE 1008,3 20 0
26.03.2019 13:00:00 12,8 8,1 48 26 NE 1008,3 25 6
26.03.2019 12:00:00 12,4 7,5 55 30 NE 1007,9 25 12
26.03.2019 11:00:00 13,2 7,7 61 33 NE 1007,8 20 6
26.03.2019 10:00:00 18,4 4,6 18 10 E 1007,1 30 60
26.03.2019 09:00:00 13,2 3,0 21 11 NW 1007,3 20 60
26.03.2019 08:00:00 12,2 1,8 28 15 WNW 1007,4 20 60
26.03.2019 07:00:00 11,6 0,7 37 20 NW 1007,1 20 12
26.03.2019 06:00:00 - - - - - - - -
26.03.2019 05:00:00 - - - - - - - -
26.03.2019 04:00:00 14,2 0,1 28 15 NW 1006,9 20 -
26.03.2019 03:00:00 - - - - - - - -
26.03.2019 02:00:00 - - - - - - - -
26.03.2019 01:00:00 - - - - - - - -
26.03.2019 00:00:00 - - - - - - - -
25.03.2019 23:00:00 - - - - - - - -
25.03.2019 22:00:00 - - - - - - - -
25.03.2019 21:00:00 - - - - - - - -
25.03.2019 20:00:00 16,0 4,1 11 6 W 1010,0 20 -
25.03.2019 19:00:00 16,0 4,1 11 6 W 1010,1 20 0
25.03.2019 18:00:00 15,8 12,0 13 7 SW 1010,9 20 60
25.03.2019 17:00:00 18,0 12,7 8 4 SSE 1011,1 20 60
25.03.2019 16:00:00 19,0 11,8 9 5 SSE 1012,2 20 60
25.03.2019 15:00:00 19,0 10,8 13 7 ESE 1012,5 20 -
25.03.2019 14:00:00 - - - - - - - -
25.03.2019 13:00:00 19,2 7,6 18 10 E 1014,6 20 60
25.03.2019 12:00:00 19,4 11,2 15 8 E 1016,3 20 60
25.03.2019 11:00:00 21,0 1,8 11 6 E 1016,7 20 60
25.03.2019 10:00:00 17,2 1,2 11 6 SW 1017,7 20 60
25.03.2019 09:00:00 15,2 1,7 9 5 SW 1017,6 30 60
25.03.2019 08:00:00 13,2 1,5 13 7 WNW 1017,7 20 60
25.03.2019 07:00:00 13,6 7,6 15 8 WSW 1017,8 20 0
25.03.2019 06:00:00 13,0 6,1 8 4 WSW 1018,3 20 -
25.03.2019 05:00:00 13,4 6,1 8 4 WSW 1018,6 20 -
25.03.2019 04:00:00 13,6 7,8 9 5 E 1019,0 10 -
25.03.2019 03:00:00 13,8 7,1 11 6 ENE 1019,2 10 -
25.03.2019 02:00:00 13,2 12,4 13 7 NE 1019,6 15 -
25.03.2019 01:00:00 13,4 12,6 13 7 NNE 1019,8 10 -
25.03.2019 00:00:00 13,0 12,2 15 8 ENE 1020,3 10 -
24.03.2019 23:00:00 13,2 12,4 9 5 N 1020,5 20 -
24.03.2019 22:00:00 13,4 12,6 9 5 NE 1020,6 20 -
24.03.2019 21:00:00 13,8 12,5 8 4 NNE 1020,6 20 -
24.03.2019 20:00:00 14,0 12,1 9 5 WSW 1020,6 20 -
24.03.2019 19:00:00 14,8 14,2 16 9 SSW 1020,5 20 0
24.03.2019 18:00:00 16,2 14,4 16 9 SSW 1020,9 20 60
24.03.2019 17:00:00 17,8 14,7 15 8 SSW 1021,0 20 60
24.03.2019 16:00:00 20,2 12,7 16 9 S 1020,9 20 60
24.03.2019 15:00:00 20,0 10,1 11 6 SSE 1021,8 30 60
24.03.2019 14:00:00 20,0 10,4 13 7 SE 1022,2 20 60
24.03.2019 13:00:00 21,4 8,7 13 7 SE 1022,2 30 60
24.03.2019 12:00:00 20,4 3,6 9 5 SE 1022,6 20 60
24.03.2019 11:00:00 19,6 3,7 9 5 SSE 1022,7 20 60
24.03.2019 10:00:00 15,2 2,4 13 7 SSW 1022,9 20 60
24.03.2019 09:00:00 15,0 4,1 11 6 SSW 1022,7 30 60
24.03.2019 08:00:00 15,0 4,7 8 4 SE 1022,4 20 42
24.03.2019 07:00:00 13,0 2,8 13 7 WSW 1022,1 20 0
24.03.2019 06:00:00 12,8 4,0 9 5 SSW 1022,2 20 -
24.03.2019 05:00:00 12,4 4,1 8 4 E 1022,1 20 -
24.03.2019 04:00:00 13,0 2,8 8 4 ENE 1022,2 20 -
24.03.2019 03:00:00 13,8 2,7 5 3 ENE 1022,1 20 -
24.03.2019 02:00:00 14,2 2,4 5 3 SE 1022,0 20 -
24.03.2019 01:00:00 14,2 3,1 15 8 WNW 1022,1 20 -
24.03.2019 00:00:00 13,4 4,8 8 4 NNW 1022,5 20 -
23.03.2019 23:00:00 13,0 5,9 11 6 N 1022,6 20 -
23.03.2019 22:00:00 13,2 5,1 15 8 NW 1022,5 20 -
23.03.2019 21:00:00 13,8 6,7 13 7 NW 1022,1 20 -
23.03.2019 20:00:00 14,0 3,8 5 3 ENE 1022,0 20 -
23.03.2019 19:00:00 15,0 0,1 8 4 N 1021,6 20 0
23.03.2019 18:00:00 14,8 5,9 4 2 WNW 1021,4 20 0
23.03.2019 17:00:00 15,0 11,6 11 6 ENE 1021,3 30 60
23.03.2019 16:00:00 16,4 12,2 13 7 E 1021,4 20 60
23.03.2019 15:00:00 16,4 11,4 21 11 ENE 1021,5 30 60
23.03.2019 14:00:00 17,0 10,2 15 8 E 1021,9 20 60
23.03.2019 13:00:00 18,4 6,9 21 11 E 1022,2 20 60
23.03.2019 12:00:00 19,0 2,8 21 11 E 1022,4 30 60
23.03.2019 11:00:00 19,4 2,3 18 10 E 1022,6 20 60
23.03.2019 10:00:00 18,4 3,5 16 9 E 1022,8 20 60
23.03.2019 09:00:00 15,0 0,4 15 8 NNW 1023,0 20 -
23.03.2019 08:00:00 13,0 0,7 21 11 NW 1023,1 20 -
23.03.2019 07:00:00 12,4 1,7 22 12 NW 1022,9 20 0
23.03.2019 06:00:00 12,4 1,4 22 12 NW 1022,9 15 -
23.03.2019 05:00:00 13,4 2,6 16 9 NNW 1023,1 10 -
23.03.2019 04:00:00 13,8 3,6 16 9 NNW 1023,1 10 -
23.03.2019 03:00:00 13,6 3,7 18 10 NNE 1023,2 12 -
23.03.2019 02:00:00 13,2 3,6 16 9 NNE 1023,3 10 -
23.03.2019 01:00:00 12,4 4,9 15 8 N 1023,6 15 -
23.03.2019 00:00:00 13,0 9,3 13 7 NNE 1024,1 10 -
22.03.2019 23:00:00 13,0 7,9 15 8 NE 1024,1 15 -
22.03.2019 22:00:00 13,0 7,9 9 5 NNE 1024,2 10 -
22.03.2019 21:00:00 13,0 10,9 18 10 NNE 1024,1 10 -
22.03.2019 20:00:00 13,2 11,8 34 18 NE 1024,0 10 -
22.03.2019 19:00:00 13,6 12,5 35 19 NE 1023,9 20 -
22.03.2019 18:00:00 14,4 12,4 34 18 NE 1023,4 20 -
22.03.2019 17:00:00 14,8 11,0 42 23 NE 1023,2 20 -
22.03.2019 16:00:00 15,8 12,0 29 16 ENE 1023,7 20 60
22.03.2019 15:00:00 16,0 11,4 31 17 ENE 1023,9 20 60
22.03.2019 14:00:00 16,4 12,4 28 15 ENE 1023,8 20 -
22.03.2019 13:00:00 16,6 10,7 29 16 ENE 1024,1 20 60
22.03.2019 12:00:00 16,2 10,3 34 18 NE 1024,1 20 -
22.03.2019 11:00:00 15,8 10,8 28 15 ENE 1024,1 20 -
22.03.2019 10:00:00 15,2 10,6 37 20 E 1024,2 20 -
22.03.2019 09:00:00 13,8 11,1 34 18 ENE 1024,1 20 0
22.03.2019 08:00:00 13,6 10,8 35 19 NE 1023,4 20 0
22.03.2019 07:00:00 13,4 11,0 35 19 NE 1023,0 20 0
22.03.2019 06:00:00 13,8 11,4 44 24 NE 1022,2 25 -
22.03.2019 05:00:00 14,0 10,9 42 23 NE 1022,1 30 -
22.03.2019 04:00:00 13,6 10,8 35 19 ENE 1022,1 30 -
22.03.2019 03:00:00 14,0 10,6 39 21 ENE 1022,0 20 -
22.03.2019 02:00:00 14,0 10,5 42 23 ENE 1022,0 30 -
22.03.2019 01:00:00 14,0 10,2 48 26 ENE 1022,0 20 -
22.03.2019 00:00:00 14,0 9,4 52 28 ENE 1022,0 20 -
21.03.2019 23:00:00 14,0 7,8 59 32 ENE 1022,0 20 -
21.03.2019 22:00:00 13,8 6,3 63 34 NE 1021,9 30 -
21.03.2019 21:00:00 13,2 6,4 63 34 NE 1021,9 20 -
21.03.2019 20:00:00 13,0 7,1 61 33 NE 1021,3 20 -
21.03.2019 19:00:00 13,0 5,3 55 30 NE 1021,3 30 -
21.03.2019 18:00:00 13,0 6,2 42 23 NE 1021,4 20 0
21.03.2019 17:00:00 12,8 7,2 41 22 NNE 1021,2 20 0
21.03.2019 16:00:00 12,6 7,4 50 27 NNE 1022,1 20 0
21.03.2019 15:00:00 12,4 8,0 52 28 NNE 1022,1 20 0
21.03.2019 14:00:00 12,2 8,2 54 29 NNE 1022,5 20 0
21.03.2019 13:00:00 12,2 7,8 57 31 NE 1022,5 25 6
21.03.2019 12:00:00 13,0 7,9 61 33 NNE 1022,5 20 60
21.03.2019 11:00:00 12,6 7,8 61 33 NE 1022,8 20 36
21.03.2019 10:00:00 12,2 6,5 55 30 NE 1022,5 20 6
21.03.2019 09:00:00 11,8 7,3 57 31 NNE 1022,3 25 0
21.03.2019 08:00:00 11,8 6,9 63 34 NE 1022,1 20 0
21.03.2019 07:00:00 11,6 7,9 57 31 NE 1022,1 25 -
21.03.2019 06:00:00 11,6 7,7 55 30 NNE 1021,8 20 -
21.03.2019 05:00:00 11,8 8,3 59 32 NNE 1021,7 20 -
21.03.2019 04:00:00 12,0 9,0 52 28 NNE 1021,6 20 -
21.03.2019 03:00:00 12,4 9,8 55 30 NNE 1021,6 20 -
21.03.2019 02:00:00 12,6 9,3 57 31 NE 1022,4 20 -
21.03.2019 01:00:00 13,0 10,5 52 28 NE 1022,2 20 -
21.03.2019 00:00:00 13,2 10,2 55 30 NE 1022,3 20 -
20.03.2019 23:00:00 12,8 9,2 48 26 NNE 1022,5 20 -
20.03.2019 22:00:00 12,6 9,4 52 28 NE 1022,1 20 -
20.03.2019 21:00:00 12,0 9,9 50 27 NE 1022,1 20 -
20.03.2019 20:00:00 12,4 10,3 52 28 NE 1021,8 20 -

tt = temperature
td = dewpoint
ff = wind speed
dd = wind direction
ppp = reduced air pressure
vv = visibility
sd = sunshine duration

Next stations